Time,TemperatureF,DewpointF,PressureIn,WindDirection,WindDirectionDegrees,WindSpeedMPH,WindSpeedGustMPH,Humidity,HourlyPrecipIn,Conditions,Clouds,dailyrainin,SoftwareType,DateUTC
2013-07-04 00:43:00,65.0,40.0,-100.00,ESE,117,0.0,2.0,38,0.00,,,-99.99,,2013-07-04 06:43:00,
2013-07-04 01:02:00,65.0,39.0,-100.00,West,272,0.0,0.0,39,0.00,,,-99.99,,2013-07-04 07:02:00,
2013-07-04 02:33:00,65.0,39.0,-100.00,WNW,291,0.0,0.0,38,-99.99,,,-99.99,,2013-07-04 08:33:00,
2013-07-04 02:42:00,65.0,38.0,-100.00,WNW,295,0.0,0.0,37,0.00,,,-99.99,,2013-07-04 08:42:00,
2013-07-04 02:52:00,64.0,39.0,-100.00,West,263,0.0,0.0,39,0.00,,,-99.99,,2013-07-04 08:52:00,
2013-07-04 03:02:00,64.0,38.0,-100.00,WNW,291,0.0,0.0,39,0.00,,,-99.99,,2013-07-04 09:02:00,
2013-07-04 03:11:00,64.0,39.0,-100.00,WSW,257,0.0,0.0,38,0.00,,,-99.99,,2013-07-04 09:11:00,
2013-07-04 03:42:00,64.0,38.0,-100.00,WNW,287,0.0,0.0,39,0.00,,,-99.99,,2013-07-04 09:42:00,
2013-07-04 04:22:00,64.0,38.0,-100.00,West,271,0.0,0.0,39,0.00,,,-99.99,,2013-07-04 10:22:00,
2013-07-04 04:33:00,63.0,38.0,-100.00,WNW,288,0.0,0.0,40,0.00,,,-99.99,,2013-07-04 10:33:00,
2013-07-04 04:43:00,-999.0,-99.9,-100.00,WNW,298,0.0,0.0,-999,-99.99,,,-99.99,,2013-07-04 10:43:00,
2013-07-04 04:53:00,-999.0,-99.9,-100.00,WSW,256,0.0,0.0,-999,-99.99,,,-99.99,,2013-07-04 10:53:00,
2013-07-04 05:33:00,61.0,39.0,-100.00,SSW,208,0.0,0.0,43,0.00,,,-99.99,,2013-07-04 11:33:00,
2013-07-04 05:43:00,60.0,39.0,-100.00,West,277,0.0,0.0,46,0.00,,,-99.99,,2013-07-04 11:43:00,
2013-07-04 06:22:00,-999.0,-99.9,-100.00,WNW,291,0.0,0.0,-999,-99.99,,,-99.99,,2013-07-04 12:22:00,
2013-07-04 06:43:00,60.0,39.0,-100.00,West,278,0.0,0.0,45,0.00,,,-99.99,,2013-07-04 12:43:00,
2013-07-04 07:43:00,63.0,40.0,-100.00,West,267,0.0,0.0,43,0.00,,,-99.99,,2013-07-04 13:43:00,
2013-07-04 08:02:00,63.0,39.0,-100.00,West,274,0.0,0.0,40,0.00,,,-99.99,,2013-07-04 14:02:00,
2013-07-04 08:22:00,-999.0,-99.9,-100.00,WSW,250,0.0,0.0,-999,-99.99,,,-99.99,,2013-07-04 14:22:00,
2013-07-04 08:43:00,64.0,39.0,-100.00,WNW,302,0.0,0.0,40,0.00,,,-99.99,,2013-07-04 14:43:00,
2013-07-04 09:23:00,65.0,44.0,-100.00,ENE,62,0.0,0.0,46,0.00,,,-99.99,,2013-07-04 15:23:00,
2013-07-04 09:33:00,65.0,46.0,-100.00,East,82,0.0,0.0,50,0.00,,,-99.99,,2013-07-04 15:33:00,
2013-07-04 09:43:00,65.0,49.0,-100.00,East,83,1.0,7.0,58,0.00,,,-99.99,,2013-07-04 15:43:00,
2013-07-04 10:02:00,66.0,47.0,-100.00,East,93,4.0,7.0,50,0.00,,,-99.99,,2013-07-04 16:02:00,
2013-07-04 10:11:00,68.0,48.0,-100.00,East,92,1.0,6.0,49,0.00,,,-99.99,,2013-07-04 16:11:00,
2013-07-04 10:33:00,66.0,52.0,-100.00,ENE,73,7.0,12.0,59,0.00,,,-99.99,,2013-07-04 16:33:00,
2013-07-04 10:42:00,65.0,53.0,-100.00,East,90,10.0,14.0,65,0.00,,,-99.99,,2013-07-04 16:42:00,
2013-07-04 10:52:00,65.0,52.0,-100.00,East,89,11.0,15.0,64,0.00,,,-99.99,,2013-07-04 16:52:00,
2013-07-04 11:11:00,64.0,53.0,-100.00,East,90,12.0,18.0,65,-99.99,,,-99.99,,2013-07-04 17:11:00,
2013-07-04 11:22:00,65.0,53.0,-100.00,East,93,12.0,18.0,65,0.00,,,-99.99,,2013-07-04 17:22:00,
2013-07-04 11:43:00,67.0,54.0,-100.00,East,92,14.0,20.0,63,0.00,,,-99.99,,2013-07-04 17:43:00,
2013-07-04 11:53:00,65.0,53.0,-100.00,ENE,75,14.0,18.0,63,0.00,,,-99.99,,2013-07-04 17:53:00,
2013-07-04 12:01:00,67.0,54.0,-100.00,East,88,15.0,22.0,64,0.00,,,-99.99,,2013-07-04 18:01:00,
2013-07-04 12:11:00,67.0,52.0,-100.00,East,79,14.0,19.0,57,0.00,,,-99.99,,2013-07-04 18:11:00,
2013-07-04 12:43:00,66.0,49.0,-100.00,East,79,17.0,21.0,55,0.00,,,-99.99,,2013-07-04 18:43:00,
2013-07-04 13:22:00,68.0,49.0,-100.00,East,88,14.0,18.0,50,0.00,,,-99.99,,2013-07-04 19:22:00,
2013-07-04 13:43:00,66.0,50.0,-100.00,East,89,10.0,19.0,55,0.00,,,-99.99,,2013-07-04 19:43:00,
2013-07-04 14:01:00,67.0,51.0,-100.00,NE,52,8.0,12.0,56,0.00,,,-99.99,,2013-07-04 20:01:00,
2013-07-04 14:22:00,69.0,52.0,-100.00,East,85,11.0,15.0,55,0.00,,,-99.99,,2013-07-04 20:22:00,
2013-07-04 14:33:00,70.0,53.0,-100.00,East,85,11.0,15.0,53,0.00,,,-99.99,,2013-07-04 20:33:00,
2013-07-04 14:42:00,69.0,50.0,-100.00,East,86,12.0,17.0,50,0.00,,,-99.99,,2013-07-04 20:42:00,
2013-07-04 14:53:00,66.0,52.0,-100.00,East,83,12.0,19.0,61,0.35,,,-99.99,,2013-07-04 20:53:00,
2013-07-04 15:22:00,-999.0,-99.9,-100.00,East,85,14.0,17.0,-999,-99.99,,,-99.99,,2013-07-04 21:22:00,
2013-07-04 15:32:00,69.0,54.0,-100.00,East,79,14.0,17.0,59,0.00,,,-99.99,,2013-07-04 21:32:00,
2013-07-04 15:43:00,67.0,52.0,-100.00,NE,48,13.0,17.0,59,0.00,,,-99.99,,2013-07-04 21:43:00,
2013-07-04 16:01:00,64.0,52.0,-100.00,ENE,62,15.0,21.0,63,0.01,,,-99.99,,2013-07-04 22:01:00,
2013-07-04 17:52:00,59.0,51.0,-100.00,East,93,19.0,24.0,77,0.00,,,-99.99,,2013-07-04 23:52:00,
2013-07-04 18:01:00,60.0,51.0,-100.00,ESE,102,14.0,19.0,72,0.00,,,-99.99,,2013-07-05 00:01:00,
2013-07-04 18:43:00,-999.0,-99.9,-100.00,ESE,123,11.0,17.0,-999,-99.99,,,-99.99,,2013-07-05 00:43:00,
2013-07-04 18:52:00,59.0,47.0,-100.00,ESE,112,9.0,15.0,64,0.00,,,-99.99,,2013-07-05 00:52:00,
2013-07-04 19:01:00,61.0,46.0,-100.00,ENE,68,7.0,9.0,58,0.00,,,-99.99,,2013-07-05 01:01:00,
2013-07-04 19:11:00,62.0,49.0,-100.00,North,350,2.0,7.0,62,0.00,,,-99.99,,2013-07-05 01:11:00,
2013-07-04 19:22:00,60.0,48.0,-100.00,West,281,2.0,8.0,66,0.00,,,-99.99,,2013-07-05 01:22:00,
2013-07-04 19:32:00,56.0,51.0,-100.00,WSW,239,12.0,26.0,82,0.48,,,-99.99,,2013-07-05 01:32:00,
2013-07-04 19:42:00,56.0,46.0,-100.00,SSE,152,7.0,14.0,69,0.18,,,-99.99,,2013-07-05 01:42:00,
2013-07-04 19:52:00,54.0,52.0,-100.00,WSW,250,4.0,8.0,92,0.37,,,-99.99,,2013-07-05 01:52:00,
2013-07-04 20:02:00,53.0,53.0,-100.00,West,277,6.0,11.0,97,0.13,,,-99.99,,2013-07-05 02:02:00,
2013-07-04 20:11:00,52.0,52.0,-100.00,West,281,5.0,9.0,98,0.34,,,-99.99,,2013-07-05 02:11:00,
2013-07-04 20:21:00,53.0,47.0,-100.00,WSW,250,3.0,7.0,83,0.16,,,-99.99,,2013-07-05 02:21:00,
2013-07-04 20:32:00,54.0,47.0,-100.00,SE,127,3.0,6.0,76,0.08,,,-99.99,,2013-07-05 02:32:00,
2013-07-04 20:42:00,55.0,47.0,-100.00,SSE,152,6.0,9.0,73,0.08,,,-99.99,,2013-07-05 02:42:00,
2013-07-04 20:52:00,52.0,50.0,-100.00,West,274,6.0,10.0,92,0.08,,,-99.99,,2013-07-05 02:52:00,
2013-07-04 21:02:00,54.0,48.0,-100.00,ENE,71,3.0,9.0,80,0.01,,,-99.99,,2013-07-05 03:02:00,
2013-07-04 21:11:00,54.0,46.0,-100.00,SSE,147,4.0,9.0,74,0.06,,,-99.99,,2013-07-05 03:11:00,
2013-07-04 21:22:00,54.0,46.0,-100.00,SSE,162,6.0,9.0,73,0.00,,,-99.99,,2013-07-05 03:22:00,
2013-07-04 21:32:00,55.0,45.0,-100.00,SSE,161,1.0,4.0,68,0.00,,,-99.99,,2013-07-05 03:32:00,
2013-07-04 21:42:00,55.0,45.0,-100.00,West,264,0.0,0.0,68,0.00,,,-99.99,,2013-07-05 03:42:00,
2013-07-04 21:51:00,54.0,48.0,-100.00,WNW,292,1.0,6.0,78,0.00,,,-99.99,,2013-07-05 03:51:00,
2013-07-04 22:01:00,55.0,45.0,-100.00,NW,313,4.0,7.0,72,0.00,,,-99.99,,2013-07-05 04:01:00,
2013-07-04 22:11:00,55.0,47.0,-100.00,North,1,1.0,4.0,74,0.00,,,-99.99,,2013-07-05 04:11:00,
2013-07-04 22:22:00,53.0,48.0,-100.00,WNW,288,5.0,10.0,83,0.00,,,-99.99,,2013-07-05 04:22:00,
2013-07-04 22:33:00,53.0,48.0,-100.00,WNW,292,4.0,7.0,86,0.00,,,-99.99,,2013-07-05 04:33:00,
2013-07-04 22:43:00,53.0,47.0,-100.00,West,272,3.0,6.0,82,0.00,,,-99.99,,2013-07-05 04:43:00,
2013-07-04 22:53:00,52.0,48.0,-100.00,West,275,0.0,4.0,85,0.00,,,-99.99,,2013-07-05 04:53:00,
2013-07-04 23:01:00,52.0,47.0,-100.00,WNW,287,0.0,0.0,83,0.00,,,-99.99,,2013-07-05 05:01:00,
2013-07-04 23:21:00,52.0,47.0,-100.00,West,270,0.0,0.0,82,0.00,,,-99.99,,2013-07-05 05:21:00,
2013-07-04 23:33:00,52.0,47.0,-100.00,West,280,0.0,0.0,83,0.00,,,-99.99,,2013-07-05 05:33:00,
2013-07-04 23:43:00,52.0,47.0,-100.00,West,275,0.0,0.0,83,0.00,,,-99.99,,2013-07-05 05:43:00,
2013-07-04 23:52:00,52.0,47.0,-100.00,West,278,0.0,1.0,82,0.00,,,-99.99,,2013-07-05 05:52:00,